Weather History for Bay City, TX

Change the Weather History Date:

Saturday, March 9, 2013

  Actual Average (KLBX) Record (KLBX)
Temperature  
Mean Temperature 72 °F -  
Max Temperature 77 °F 67 °F 84 °F (2006)
Min Temperature 66 °F 52 °F 42 °F (1998)
Cooling Degree Days 6    
Growing Degree Days 22 (Base 50)    
Moisture  
Dew Point 65 °F    
Average Humidity 86    
Maximum Humidity 100    
Minimum Humidity 65    
Precipitation  
Precipitation 0.00 in - - ()
Sea Level Pressure  
Sea Level Pressure 29.90 in    
Wind  
Wind Speed 14 mph (SE)    
Max Wind Speed 25 mph    
Max Gust Speed 37 mph    
Visibility 10 miles    
Events Rain    
Averages and records for this station are not official NWS values.
T = Trace of Precipitation, MM = Missing Value Source: NWS Daily Summary

Daily Weather History Graph

Daily Weather History Graph

Search for Another Location

Airport:

Trip Planner

Search our weather history database for the weather conditions in past years. The results will help you decide how hot, cold, wet, or windy it might be!

Date:

Astronomy

Mar. 09, 2013 Rise Set
Actual Time 6:39 AM CST 6:28 PM CST
Civil Twilight 6:16 AM CST 6:52 PM CST
Nautical Twilight 5:48 AM CST 7:19 PM CST
Astronomical Twilight 5:21 AM CST 7:47 PM CST
Moon 4:56 AM CST (3/9) 4:37 PM CST (3/9)
Length of Visible Light 12h 36m
Length of Day
11h 48m
Waning Crescent, 5% of the Moon is Illuminated
Mar 9
Waning Crescent
Mar 11
New
Mar 19
First Quarter
Mar 27
Full
Apr 2
Last Quarter

Hourly Weather History & Observations

Time (CST) Temp. Dew Point Humidity Pressure Visibility Wind Dir Wind Speed Gust Speed Precip Events Conditions
12:15 AM 66.6 °F 61.9 °F 85% 30.05 in 10.0 mi SE 11.5 mph - N/A   Scattered Clouds
12:35 AM 67.1 °F 62.1 °F 84% 30.04 in 10.0 mi SE 12.7 mph - N/A   Mostly Cloudy
12:55 AM 67.1 °F 62.6 °F 85% 30.04 in 10.0 mi SE 10.4 mph - N/A   Scattered Clouds
1:15 AM 67.3 °F 62.8 °F 85% 30.04 in 10.0 mi SE 6.9 mph - N/A   Mostly Cloudy
1:35 AM 67.1 °F 63.0 °F 87% 30.03 in 10.0 mi SE 10.4 mph - N/A   Scattered Clouds
1:55 AM 66.7 °F 63.1 °F 88% 30.02 in 10.0 mi SE 10.4 mph - N/A   Clear
2:15 AM 66.7 °F 63.7 °F 90% 30.01 in 10.0 mi SE 11.5 mph - N/A   Scattered Clouds
2:35 AM 66.9 °F 63.9 °F 90% 30.00 in 10.0 mi SE 12.7 mph 18.4 mph N/A   Scattered Clouds
2:55 AM 67.1 °F 63.5 °F 88% 29.98 in 10.0 mi SE 12.7 mph - N/A   Mostly Cloudy
3:15 AM 67.5 °F 63.5 °F 87% 29.97 in 10.0 mi SSE 13.8 mph 18.4 mph N/A   Mostly Cloudy
3:35 AM 67.5 °F 63.5 °F 87% 29.97 in 10.0 mi SSE 12.7 mph - N/A   Overcast
3:55 AM 67.5 °F 63.5 °F 87% 29.96 in 10.0 mi SSE 15.0 mph 19.6 mph N/A   Scattered Clouds
4:15 AM 67.5 °F 63.5 °F 87% 29.95 in 10.0 mi SE 13.8 mph 19.6 mph N/A Rain Light Rain
4:35 AM 67.1 °F 65.1 °F 93% 29.95 in 10.0 mi SE 15.0 mph 19.6 mph N/A   Scattered Clouds
4:55 AM 67.3 °F 65.1 °F 93% 29.95 in 10.0 mi SE 13.8 mph 20.7 mph N/A   Mostly Cloudy
5:15 AM 67.5 °F 65.5 °F 93% 29.96 in 10.0 mi SSE 6.9 mph - N/A Rain Light Rain
5:35 AM 67.1 °F 67.1 °F 100% 29.95 in 10.0 mi SE 10.4 mph - N/A Rain Light Rain
5:55 AM 67.3 °F 67.3 °F 100% 29.95 in 10.0 mi SSE 8.1 mph - N/A   Scattered Clouds
6:15 AM 67.5 °F 67.5 °F 100% 29.95 in 10.0 mi SSE 10.4 mph - N/A   Clear
6:35 AM 67.3 °F 67.3 °F 100% 29.96 in 10.0 mi SSE 6.9 mph - N/A   Clear
6:55 AM 67.1 °F 67.1 °F 100% 29.96 in 10.0 mi SE 8.1 mph - N/A   Clear
7:15 AM 67.1 °F 67.1 °F 100% 29.96 in 7.0 mi SSE 6.9 mph - N/A   Clear
7:35 AM 67.1 °F 67.1 °F 100% 29.97 in 7.0 mi SSE 6.9 mph - N/A   Clear
7:55 AM 67.3 °F 67.3 °F 100% 29.97 in 7.0 mi SE 10.4 mph - N/A   Clear
8:15 AM 67.8 °F 67.8 °F 100% 29.97 in 7.0 mi SE 11.5 mph - N/A   Clear
8:35 AM 68.9 °F 68.9 °F 100% 29.98 in 10.0 mi SE 9.2 mph - N/A   Clear
8:55 AM 70.5 °F 66.2 °F 86% 29.98 in 10.0 mi SSE 13.8 mph 19.6 mph N/A   Clear
9:15 AM 70.7 °F 65.3 °F 83% 29.98 in 10.0 mi SE 13.8 mph 21.9 mph N/A   Clear
9:35 AM 71.4 °F 65.3 °F 81% 29.98 in 10.0 mi SSE 15.0 mph 21.9 mph N/A   Clear
9:55 AM 72.1 °F 65.3 °F 79% 29.98 in 10.0 mi SSE 17.3 mph 24.2 mph N/A   Scattered Clouds
10:15 AM 73.6 °F 65.1 °F 75% 29.98 in 10.0 mi SSE 20.7 mph 26.5 mph N/A   Scattered Clouds
10:35 AM 73.0 °F 64.9 °F 76% 29.98 in 10.0 mi SSE 15.0 mph 27.6 mph N/A   Scattered Clouds
10:55 AM 72.7 °F 65.3 °F 78% 29.97 in 10.0 mi SSE 19.6 mph 24.2 mph N/A   Scattered Clouds
11:15 AM 73.0 °F 65.5 °F 77% 29.96 in 10.0 mi SSE 19.6 mph 25.3 mph N/A   Scattered Clouds
11:35 AM 73.0 °F 65.5 °F 77% 29.95 in 10.0 mi SSE 17.3 mph 25.3 mph N/A   Scattered Clouds
11:55 AM 72.5 °F 65.7 °F 79% 29.94 in 10.0 mi SE 18.4 mph - N/A   Clear
12:15 PM 73.0 °F 65.8 °F 78% 29.93 in 10.0 mi SSE 18.4 mph 23.0 mph N/A   Clear
12:35 PM 73.9 °F 66.0 °F 76% 29.92 in 10.0 mi SE 21.9 mph 27.6 mph N/A   Scattered Clouds
12:55 PM 74.7 °F 65.7 °F 73% 29.91 in 10.0 mi SSE 24.2 mph 29.9 mph N/A   Scattered Clouds
1:15 PM 76.8 °F 65.8 °F 69% 29.89 in 10.0 mi SSE 24.2 mph 29.9 mph N/A   Scattered Clouds
1:35 PM 77.5 °F 64.9 °F 65% 29.88 in 10.0 mi SE 24.2 mph 32.2 mph N/A   Scattered Clouds
1:55 PM 75.9 °F 64.8 °F 68% 29.86 in 10.0 mi SSE 25.3 mph 33.4 mph N/A   Overcast
2:15 PM 75.7 °F 64.8 °F 69% 29.86 in 10.0 mi SSE 25.3 mph 31.1 mph N/A   Overcast
2:35 PM 75.6 °F 64.4 °F 68% 29.86 in 10.0 mi SSE 24.2 mph 33.4 mph N/A   Overcast
2:55 PM 74.5 °F 64.2 °F 70% 29.85 in 10.0 mi SSE 19.6 mph 31.1 mph N/A   Overcast
3:15 PM 74.3 °F 64.0 °F 70% 29.85 in 10.0 mi SSE 19.6 mph 36.8 mph N/A   Overcast
3:35 PM 73.6 °F 64.0 °F 72% 29.85 in 10.0 mi SSE 19.6 mph 27.6 mph N/A   Overcast
3:55 PM 73.9 °F 64.0 °F 71% 29.83 in 10.0 mi SSE 21.9 mph 27.6 mph N/A   Overcast
4:15 PM 73.8 °F 63.9 °F 71% 29.82 in 10.0 mi SSE 25.3 mph 31.1 mph N/A   Overcast
4:35 PM 74.1 °F 63.9 °F 70% 29.82 in 10.0 mi SSE 21.9 mph 29.9 mph N/A   Mostly Cloudy
4:55 PM 73.4 °F 63.9 °F 72% 29.83 in 10.0 mi SSE 20.7 mph 28.8 mph N/A   Overcast
5:15 PM 72.5 °F 64.0 °F 75% 29.83 in 10.0 mi SSE 20.7 mph 25.3 mph N/A   Overcast
5:35 PM 72.0 °F 64.4 °F 77% 29.82 in 10.0 mi SSE 19.6 mph 25.3 mph N/A   Overcast
5:55 PM 71.8 °F 64.4 °F 77% 29.81 in 10.0 mi SSE 17.3 mph 24.2 mph N/A   Overcast
6:15 PM 71.1 °F 64.4 °F 79% 29.79 in 10.0 mi SE 17.3 mph 26.5 mph N/A   Mostly Cloudy
6:35 PM 69.8 °F 64.4 °F 83% 29.79 in 10.0 mi SE 18.4 mph 25.3 mph N/A   Scattered Clouds
6:55 PM 69.3 °F 64.6 °F 85% 29.80 in 10.0 mi SE 16.1 mph 25.3 mph N/A   Clear
7:15 PM 69.1 °F 64.6 °F 86% 29.81 in 10.0 mi SE 13.8 mph 18.4 mph N/A   Clear
7:35 PM 68.9 °F 64.6 °F 86% 29.81 in 10.0 mi SE 13.8 mph 21.9 mph N/A   Clear
7:55 PM 68.9 °F 64.9 °F 87% 29.82 in 10.0 mi SE 15.0 mph 19.6 mph N/A   Clear
8:15 PM 68.9 °F 65.3 °F 88% 29.80 in 10.0 mi SE 15.0 mph 19.6 mph N/A   Clear
8:35 PM 68.7 °F 65.3 °F 89% 29.80 in 10.0 mi SE 16.1 mph 24.2 mph N/A   Clear
8:55 PM 68.5 °F 66.4 °F 93% 29.80 in 10.0 mi SE 17.3 mph 25.3 mph N/A   Clear
9:15 PM 68.5 °F 67.8 °F 98% 29.79 in 7.0 mi SE 12.7 mph - N/A   Clear
9:35 PM 68.5 °F 68.5 °F 100% 29.78 in 7.0 mi SE 17.3 mph 23.0 mph N/A   Clear
9:55 PM 68.5 °F 68.5 °F 100% 29.78 in 7.0 mi SE 15.0 mph 24.2 mph N/A   Clear
10:15 PM 68.5 °F 68.5 °F 100% 29.77 in 7.0 mi SSE 15.0 mph 21.9 mph N/A   Mostly Cloudy
10:35 PM 68.4 °F 68.4 °F 100% 29.77 in 7.0 mi SSE 13.8 mph 20.7 mph N/A   Overcast
10:55 PM 68.7 °F 68.7 °F 100% 29.75 in 7.0 mi SE 15.0 mph 21.9 mph N/A   Overcast
11:15 PM 69.1 °F 69.1 °F 100% 29.75 in 7.0 mi SSE 13.8 mph 20.7 mph N/A   Overcast
11:35 PM 69.1 °F 69.1 °F 100% 29.75 in 7.0 mi SSE 12.7 mph 21.9 mph N/A   Overcast
11:55 PM 69.3 °F 69.3 °F 100% 29.75 in 7.0 mi SE 12.7 mph 19.6 mph N/A   Overcast